Back to Top

Language: 

My Weather Underground Personal Weather Station Historical Data with Graphs...

Delerius Weather Station Historical Data
Daily Summary for July 6, 2017 Units:  Metric    English   Both
« Previous Day
Next Day »
Daily Weekly Monthly Yearly Custom
  High: Low: Average:
Temperature: 27.7 °C 13.6 °C 19.7 °C
Dew Point: 19.8 °C 12.5 °C 15.1 °C
Humidity: 93 % 51 % 77 %
Wind Speed: 14.5 km/h 0 km/h 6.9 km/h
Wind Gust: 24.1 km/h - -
Wind:- - South
Pressure: 1018.8 hPa 1011.1 hPa -
Precipitation: 2.29 mm    
Historical Graphs
 
 
Tabular Data for July 6, 2017
Time Temperature Dew Point Pressure Wind Wind Speed Wind Gust Humidity Rainfall Rate (Hourly) solar Conditions
00:04 14.7 °C 12.9 °C 1018.8 hPa ENE 1.6 km/h 8 km/h 89 % 0 mm 0 W/m2
00:09 14.7 °C 12.9 °C 1018.8 hPa ENE 1.6 km/h 8 km/h 89 % 0 mm 0 W/m2
00:14 14.7 °C 12.9 °C 1018.8 hPa ENE 1.6 km/h 8 km/h 89 % 0 mm 0 W/m2
00:19 14.7 °C 12.9 °C 1018.8 hPa ENE 1.6 km/h 9.7 km/h 89 % 0 mm 0 W/m2
00:24 14.6 °C 12.8 °C 1018.8 hPa ENE 3.2 km/h 9.7 km/h 89 % 0 mm 0 W/m2
00:29 14.6 °C 12.8 °C 1018.8 hPa ENE 4.8 km/h 9.7 km/h 89 % 0 mm 0 W/m2
00:34 14.6 °C 13 °C 1018.8 hPa ENE 3.2 km/h 8 km/h 90 % 0 mm 0 W/m2
00:39 14.5 °C 12.9 °C 1018.8 hPa ENE 3.2 km/h 8 km/h 90 % 0 mm 0 W/m2
00:44 14.4 °C 12.8 °C 1018.8 hPa ENE 4.8 km/h 8 km/h 90 % 0 mm 0 W/m2
00:49 14.4 °C 12.8 °C 1018.8 hPa ENE 3.2 km/h 9.7 km/h 90 % 0 mm 0 W/m2
00:54 14.4 °C 12.8 °C 1018.8 hPa ENE 3.2 km/h 9.7 km/h 90 % 0 mm 0 W/m2
00:59 14.4 °C 12.8 °C 1018.5 hPa ENE 1.6 km/h 8 km/h 90 % 0 mm 0 W/m2
01:04 14.3 °C 12.7 °C 1018.8 hPa ENE 1.6 km/h 8 km/h 90 % 0 mm 0 W/m2
01:09 14.3 °C 12.7 °C 1018.5 hPa ENE 3.2 km/h 9.7 km/h 90 % 0 mm 0 W/m2
01:14 14.2 °C 12.6 °C 1018.5 hPa ENE 3.2 km/h 9.7 km/h 90 % 0 mm 0 W/m2
01:19 14.2 °C 12.6 °C 1018.5 hPa ENE 3.2 km/h 8 km/h 90 % 0 mm 0 W/m2
01:24 14.2 °C 12.8 °C 1018.5 hPa ENE 1.6 km/h 8 km/h 91 % 0 mm 0 W/m2
01:29 14.2 °C 12.8 °C 1018.5 hPa ENE 1.6 km/h 8 km/h 91 % 0 mm 0 W/m2
01:34 14.2 °C 12.8 °C 1018.5 hPa ENE 1.6 km/h 8 km/h 91 % 0 mm 0 W/m2
01:39 14.1 °C 12.7 °C 1018.5 hPa ENE 1.6 km/h 8 km/h 91 % 0 mm 0 W/m2
01:45 14.1 °C 12.7 °C 1018.5 hPa ENE 1.6 km/h 8 km/h 91 % 0 mm 0 W/m2
01:50 14.1 °C 12.7 °C 1018.5 hPa ENE 1.6 km/h 8 km/h 91 % 0 mm 0 W/m2
01:55 14.1 °C 12.7 °C 1018.5 hPa ENE 1.6 km/h 8 km/h 91 % 0 mm 0 W/m2
02:00 14.1 °C 12.7 °C 1018.5 hPa ENE 1.6 km/h 8 km/h 91 % 0 mm 0 W/m2
02:05 14 °C 12.6 °C 1018.5 hPa ENE 1.6 km/h 8 km/h 91 % 0 mm 0 W/m2
02:10 14 °C 12.6 °C 1018.5 hPa ENE 1.6 km/h 8 km/h 91 % 0 mm 0 W/m2
02:15 13.9 °C 12.6 °C 1018.5 hPa ENE 1.6 km/h 8 km/h 92 % 0 mm 0 W/m2
02:20 14 °C 12.7 °C 1018.5 hPa ENE 3.2 km/h 8 km/h 92 % 0 mm 0 W/m2
02:25 13.9 °C 12.6 °C 1018.5 hPa ENE 3.2 km/h 8 km/h 92 % 0 mm 0 W/m2
02:26 13.9 °C 12.6 °C 1018.5 hPa East 1.6 km/h 8 km/h 92 % 0 mm 0 W/m2
02:31 13.9 °C 12.6 °C 1018.2 hPa East 1.6 km/h 8 km/h 92 % 0 mm 0 W/m2
02:36 13.9 °C 12.6 °C 1018.2 hPa East 1.6 km/h 6.4 km/h 92 % 0 mm 0 W/m2
02:41 13.9 °C 12.6 °C 1018.2 hPa East 1.6 km/h 8 km/h 92 % 0 mm 0 W/m2
02:46 13.9 °C 12.6 °C 1018.2 hPa ENE 1.6 km/h 8 km/h 92 % 0 mm 0 W/m2
02:51 13.9 °C 12.6 °C 1018.2 hPa ENE 1.6 km/h 6.4 km/h 92 % 0 mm 0 W/m2
02:56 13.9 °C 12.6 °C 1018.2 hPa ENE 1.6 km/h 6.4 km/h 92 % 0 mm 0 W/m2
03:01 13.9 °C 12.6 °C 1017.8 hPa ENE 1.6 km/h 8 km/h 92 % 0 mm 0 W/m2
03:06 13.8 °C 12.5 °C 1018.2 hPa NE 1.6 km/h 8 km/h 92 % 0 mm 0 W/m2
03:11 13.8 °C 12.5 °C 1018.2 hPa ENE 1.6 km/h 8 km/h 92 % 0 mm 0 W/m2
03:17 13.8 °C 12.5 °C 1017.8 hPa ENE 1.6 km/h 6.4 km/h 92 % 0 mm 0 W/m2
03:22 13.8 °C 12.5 °C 1017.8 hPa Calm   3.2 km/h 92 % 0 mm 0 W/m2
03:27 13.8 °C 12.5 °C 1017.8 hPa Calm   3.2 km/h 92 % 0 mm 0 W/m2
03:32 13.8 °C 12.5 °C 1017.8 hPa Calm   3.2 km/h 92 % 0 mm 0 W/m2
03:37 13.8 °C 12.7 °C 1017.8 hPa ENE 1.6 km/h 8 km/h 93 % 0 mm 0 W/m2
03:42 13.8 °C 12.5 °C 1017.8 hPa East 1.6 km/h 8 km/h 92 % 0 mm 0 W/m2
03:47 13.8 °C 12.5 °C 1017.8 hPa Calm   3.2 km/h 92 % 0 mm 0 W/m2
03:52 13.8 °C 12.7 °C 1017.8 hPa ENE 1.6 km/h 8 km/h 93 % 0 mm 0 W/m2
03:57 13.8 °C 12.7 °C 1017.5 hPa ENE 1.6 km/h 8 km/h 93 % 0 mm 0 W/m2
04:02 13.8 °C 12.7 °C 1017.5 hPa ENE 1.6 km/h 6.4 km/h 93 % 0 mm 0 W/m2
04:07 13.7 °C 12.6 °C 1017.5 hPa East 1.6 km/h 8 km/h 93 % 0 mm 0 W/m2
04:12 13.7 °C 12.6 °C 1017.5 hPa East 3.2 km/h 8 km/h 93 % 0 mm 0 W/m2
04:17 13.7 °C 12.6 °C 1017.5 hPa East 1.6 km/h 6.4 km/h 93 % 0 mm 0 W/m2
04:22 13.7 °C 12.6 °C 1017.5 hPa ESE 1.6 km/h 6.4 km/h 93 % 0 mm 0 W/m2
04:27 13.7 °C 12.6 °C 1017.5 hPa ESE 1.6 km/h 6.4 km/h 93 % 0 mm 0 W/m2
04:32 13.7 °C 12.6 °C 1017.5 hPa Calm   4.8 km/h 93 % 0 mm 0 W/m2
04:37 13.7 °C 12.6 °C 1017.5 hPa Calm   4.8 km/h 93 % 0 mm 0 W/m2
04:42 13.7 °C 12.6 °C 1017.5 hPa Calm   6.4 km/h 93 % 0 mm 0 W/m2
04:47 13.7 °C 12.6 °C 1017.2 hPa Calm   6.4 km/h 93 % 0 mm 0 W/m2
04:52 13.6 °C 12.5 °C 1017.2 hPa Calm   3.2 km/h 93 % 0 mm 0 W/m2
04:57 13.6 °C 12.5 °C 1017.2 hPa Calm   3.2 km/h 93 % 0 mm 0 W/m2
05:02 13.7 °C 12.6 °C 1017.2 hPa Calm   3.2 km/h 93 % 0 mm 0 W/m2
05:07 13.7 °C 12.6 °C 1017.2 hPa ESE 1.6 km/h 6.4 km/h 93 % 0 mm 0 W/m2
05:13 13.7 °C 12.6 °C 1017.2 hPa ESE 1.6 km/h 6.4 km/h 93 % 0 mm 0 W/m2
05:18 13.7 °C 12.6 °C 1017.2 hPa ESE 1.6 km/h 6.4 km/h 93 % 0 mm 5 W/m2
05:23 13.7 °C 12.6 °C 1017.2 hPa ESE 1.6 km/h 6.4 km/h 93 % 0 mm 11 W/m2
05:28 13.7 °C 12.6 °C 1017.2 hPa ESE 1.6 km/h 6.4 km/h 93 % 0 mm 11 W/m2
05:33 13.7 °C 12.6 °C 1017.2 hPa ESE 1.6 km/h 6.4 km/h 93 % 0 mm 14 W/m2
05:38 13.7 °C 12.6 °C 1016.8 hPa ESE 1.6 km/h 9.7 km/h 93 % 0 mm 18 W/m2
05:40 13.7 °C 12.6 °C 1016.8 hPa ESE 1.6 km/h 9.7 km/h 93 % 0 mm 19 W/m2
05:45 13.7 °C 12.6 °C 1016.8 hPa SE 3.2 km/h 9.7 km/h 93 % 0 mm 21 W/m2
05:50 13.7 °C 12.6 °C 1016.8 hPa SE 1.6 km/h 6.4 km/h 93 % 0 mm 21 W/m2
05:55 13.8 °C 12.7 °C 1017.2 hPa Calm   4.8 km/h 93 % 0 mm 21 W/m2
06:00 13.8 °C 12.7 °C 1017.2 hPa SE 1.6 km/h 6.4 km/h 93 % 0 mm 25 W/m2
06:05 13.8 °C 12.7 °C 1017.2 hPa SE 1.6 km/h 9.7 km/h 93 % 0 mm 25 W/m2
06:06 13.8 °C 12.7 °C 1017.2 hPa SE 3.2 km/h 9.7 km/h 93 % 0 mm 25 W/m2
06:11 13.9 °C 12.8 °C 1016.8 hPa SE 3.2 km/h 9.7 km/h 93 % 0 mm 35 W/m2
06:16 13.9 °C 12.8 °C 1016.8 hPa SE 4.8 km/h 11.3 km/h 93 % 0 mm 40 W/m2
06:21 13.9 °C 12.8 °C 1016.8 hPa SSE 4.8 km/h 11.3 km/h 93 % 0 mm 47 W/m2
06:26 13.9 °C 12.8 °C 1016.5 hPa SSE 6.4 km/h 11.3 km/h 93 % 0 mm 60 W/m2
06:31 14 °C 12.9 °C 1016.5 hPa SSE 8 km/h 14.5 km/h 93 % 0 mm 79 W/m2
06:36 14 °C 12.9 °C 1016.8 hPa SE 9.7 km/h 16.1 km/h 93 % 0 mm 58 W/m2
06:41 14 °C 12.9 °C 1016.8 hPa SSE 9.7 km/h 16.1 km/h 93 % 0 mm 54 W/m2
06:46 14.1 °C 13 °C 1016.8 hPa SSE 9.7 km/h 16.1 km/h 93 % 0 mm 62 W/m2
06:48 14.1 °C 13 °C 1016.8 hPa SSE 9.7 km/h 16.1 km/h 93 % 0 mm 63 W/m2
06:53 14.1 °C 13 °C 1016.8 hPa SSE 9.7 km/h 16.1 km/h 93 % 0 mm 62 W/m2
06:58 14.2 °C 12.9 °C 1016.8 hPa SSE 9.7 km/h 14.5 km/h 92 % 0 mm 58 W/m2
07:03 14.2 °C 12.9 °C 1016.8 hPa SSE 9.7 km/h 14.5 km/h 92 % 0 mm 72 W/m2
07:08 14.2 °C 12.9 °C 1016.5 hPa SSE 9.7 km/h 16.1 km/h 92 % 0 mm 88 W/m2
07:13 14.3 °C 13 °C 1016.8 hPa SSE 9.7 km/h 16.1 km/h 92 % 0 mm 102 W/m2
07:18 14.4 °C 13.1 °C 1016.5 hPa SSE 8 km/h 12.9 km/h 92 % 0 mm 116 W/m2
07:23 14.4 °C 13.1 °C 1016.5 hPa SSE 8 km/h 12.9 km/h 92 % 0 mm 130 W/m2
07:28 14.6 °C 13.3 °C 1016.5 hPa SSE 8 km/h 17.7 km/h 92 % 0 mm 144 W/m2
07:33 14.6 °C 13.3 °C 1016.5 hPa SSE 9.7 km/h 17.7 km/h 92 % 0 mm 135 W/m2
07:38 14.7 °C 13.4 °C 1016.5 hPa SSE 6.4 km/h 16.1 km/h 92 % 0 mm 141 W/m2
07:43 14.8 °C 13.3 °C 1016.5 hPa SSE 6.4 km/h 14.5 km/h 91 % 0 mm 144 W/m2
07:48 14.9 °C 13.4 °C 1016.5 hPa SSE 8 km/h 14.5 km/h 91 % 0 mm 172 W/m2
07:53 15.1 °C 13.7 °C 1016.5 hPa SSE 8 km/h 14.5 km/h 91 % 0 mm 185 W/m2
07:58 15.2 °C 13.6 °C 1016.5 hPa SSE 8 km/h 17.7 km/h 90 % 0 mm 209 W/m2
08:03 15.3 °C 13.7 °C 1016.5 hPa SSE 8 km/h 17.7 km/h 90 % 0 mm 230 W/m2
08:08 15.4 °C 13.6 °C 1016.5 hPa SSE 9.7 km/h 16.1 km/h 89 % 0 mm 229 W/m2
08:13 15.6 °C 13.8 °C 1016.5 hPa South 9.7 km/h 16.1 km/h 89 % 0 mm 220 W/m2
08:18 15.7 °C 13.9 °C 1016.5 hPa SSE 8 km/h 14.5 km/h 89 % 0 mm 199 W/m2
08:23 15.8 °C 13.8 °C 1016.5 hPa SSE 8 km/h 12.9 km/h 88 % 0 mm 211 W/m2
08:28 15.9 °C 13.9 °C 1016.5 hPa SSE 6.4 km/h 12.9 km/h 88 % 0 mm 213 W/m2
08:33 16.1 °C 13.9 °C 1016.5 hPa SE 6.4 km/h 11.3 km/h 87 % 0 mm 207 W/m2
08:38 16.2 °C 14.1 °C 1016.5 hPa SE 8 km/h 12.9 km/h 87 % 0 mm 271 W/m2
08:44 16.4 °C 14.1 °C 1016.5 hPa SE 9.7 km/h 16.1 km/h 86 % 0 mm 218 W/m2
08:49 16.5 °C 14.2 °C 1016.5 hPa SE 9.7 km/h 16.1 km/h 86 % 0 mm 278 W/m2
08:54 16.6 °C 14.1 °C 1016.1 hPa SE 8 km/h 14.5 km/h 85 % 0 mm 225 W/m2
08:59 16.7 °C 14.2 °C 1016.1 hPa SE 8 km/h 14.5 km/h 85 % 0 mm 271 W/m2
09:04 16.8 °C 14.3 °C 1016.1 hPa SE 6.4 km/h 14.5 km/h 85 % 0 mm 276 W/m2
09:09 17.1 °C 14.6 °C 1016.1 hPa SE 6.4 km/h 14.5 km/h 85 % 0 mm 360 W/m2
09:14 17.3 °C 14.6 °C 1016.1 hPa SE 8 km/h 14.5 km/h 84 % 0 mm 322 W/m2
09:19 17.5 °C 14.6 °C 1015.8 hPa SE 6.4 km/h 12.9 km/h 83 % 0 mm 649 W/m2
09:24 17.9 °C 14.9 °C 1016.1 hPa SE 6.4 km/h 12.9 km/h 83 % 0 mm 670 W/m2
09:29 18.5 °C 15.2 °C 1015.8 hPa SE 6.4 km/h 12.9 km/h 81 % 0 mm 338 W/m2
09:34 18.7 °C 15 °C 1015.8 hPa SE 6.4 km/h 17.7 km/h 79 % 0 mm 547 W/m2
09:39 18.7 °C 15 °C 1015.8 hPa SE 9.7 km/h 17.7 km/h 79 % 0 mm 401 W/m2
09:44 18.9 °C 15.2 °C 1015.8 hPa SE 8 km/h 16.1 km/h 79 % 0 mm 436 W/m2
09:49 19 °C 15.3 °C 1015.8 hPa SE 8 km/h 12.9 km/h 79 % 0 mm 388 W/m2
09:55 19.1 °C 15.2 °C 1015.5 hPa SSE 8 km/h 12.9 km/h 78 % 0 mm 332 W/m2
10:00 19.2 °C 15.3 °C 1015.5 hPa SSE 8 km/h 16.1 km/h 78 % 0 mm 403 W/m2
10:08 19.4 °C 15.3 °C 1015.5 hPa SSE 8 km/h 12.9 km/h 77 % 0 mm 461 W/m2
10:11 19.6 °C 15.4 °C 1015.5 hPa SE 8 km/h 12.9 km/h 77 % 0 mm 413 W/m2
10:13 19.6 °C 15.4 °C 1015.5 hPa SE 8 km/h 12.9 km/h 77 % 0 mm 422 W/m2
10:15 19.7 °C 15.6 °C 1015.5 hPa SE 8 km/h 12.9 km/h 77 % 0 mm 636 W/m2
10:16 19.8 °C 15.7 °C 1015.5 hPa SE 8 km/h 12.9 km/h 77 % 0 mm 636 W/m2
10:18 19.9 °C 15.6 °C 1015.5 hPa SE 8 km/h 16.1 km/h 76 % 0 mm 438 W/m2
10:19 19.9 °C 15.6 °C 1015.1 hPa SE 8 km/h 16.1 km/h 76 % 0 mm 417 W/m2
10:22 20.1 °C 15.6 °C 1015.1 hPa SE 9.7 km/h 16.1 km/h 75 % 0 mm 334 W/m2
10:25 20.2 °C 15.6 °C 1015.1 hPa SE 9.7 km/h 16.1 km/h 75 % 0 mm 367 W/m2
10:26 20.2 °C 15.4 °C 1015.1 hPa SE 9.7 km/h 16.1 km/h 74 % 0 mm 394 W/m2
10:31 20.4 °C 15.6 °C 1015.1 hPa SE 8 km/h 14.5 km/h 74 % 0 mm 397 W/m2
10:35 20.6 °C 15.8 °C 1015.1 hPa SE 8 km/h 14.5 km/h 74 % 0 mm 357 W/m2
10:41 20.8 °C 15.8 °C 1015.1 hPa SE 9.7 km/h 14.5 km/h 73 % 0 mm 285 W/m2
10:46 20.8 °C 15.6 °C 1014.8 hPa SE 9.7 km/h 14.5 km/h 72 % 0 mm 348 W/m2
10:51 21 °C 15.8 °C 1014.8 hPa SE 9.7 km/h 14.5 km/h 72 % 0 mm 434 W/m2
10:56 21.2 °C 15.7 °C 1014.8 hPa SE 8 km/h 16.1 km/h 71 % 0 mm 599 W/m2
11:01 21.6 °C 15.9 °C 1014.8 hPa SE 9.7 km/h 19.3 km/h 70 % 0 mm 768 W/m2
11:06 22 °C 15.8 °C 1014.8 hPa SE 9.7 km/h 19.3 km/h 68 % 0 mm 768 W/m2
11:11 22.3 °C 15.9 °C 1014.8 hPa SE 9.7 km/h 17.7 km/h 67 % 0 mm 649 W/m2
11:16 22.6 °C 15.7 °C 1014.4 hPa SE 11.3 km/h 16.1 km/h 65 % 0 mm 810 W/m2
11:21 22.9 °C 15.7 °C 1014.4 hPa SE 12.9 km/h 20.9 km/h 64 % 0 mm 842 W/m2
11:26 23.1 °C 15.7 °C 1014.4 hPa SE 12.9 km/h 20.9 km/h 63 % 0 mm 831 W/m2
11:31 23.2 °C 15.8 °C 1014.4 hPa SE 12.9 km/h 20.9 km/h 63 % 0 mm 847 W/m2
11:36 23.3 °C 15.8 °C 1014.4 hPa SE 14.5 km/h 22.5 km/h 63 % 0 mm 846 W/m2
11:41 23.3 °C 15.8 °C 1014.4 hPa SSE 12.9 km/h 22.5 km/h 63 % 0 mm 842 W/m2
11:46 23.4 °C 16.2 °C 1014.1 hPa SSE 12.9 km/h 22.5 km/h 64 % 0 mm 846 W/m2
11:51 23.4 °C 16.2 °C 1014.1 hPa SSE 12.9 km/h 22.5 km/h 64 % 0 mm 854 W/m2
11:56 23.6 °C 16.2 °C 1014.1 hPa SSE 11.3 km/h 22.5 km/h 63 % 0 mm 875 W/m2
12:01 23.7 °C 16.5 °C 1014.1 hPa SSE 11.3 km/h 20.9 km/h 64 % 0 mm 865 W/m2
12:06 23.9 °C 16.4 °C 1014.1 hPa SSE 11.3 km/h 22.5 km/h 63 % 0 mm 872 W/m2
12:11 23.9 °C 16.4 °C 1014.1 hPa SE 14.5 km/h 22.5 km/h 63 % 0 mm 853 W/m2
12:16 24.1 °C 16.4 °C 1014.1 hPa SE 14.5 km/h 20.9 km/h 62 % 0 mm 756 W/m2
12:21 24.2 °C 16.4 °C 1013.8 hPa SE 12.9 km/h 22.5 km/h 62 % 0 mm 594 W/m2
12:26 24.1 °C 16.6 °C 1013.8 hPa SE 12.9 km/h 22.5 km/h 63 % 0 mm 875 W/m2
12:31 24.3 °C 16.8 °C 1013.8 hPa SE 11.3 km/h 19.3 km/h 63 % 0 mm 881 W/m2
12:36 24.5 °C 16.5 °C 1013.8 hPa SE 11.3 km/h 20.9 km/h 61 % 0 mm 888 W/m2
12:41 24.6 °C 16.3 °C 1013.8 hPa SSE 12.9 km/h 20.9 km/h 60 % 0 mm 882 W/m2
12:47 24.7 °C 16.7 °C 1013.4 hPa SSE 11.3 km/h 22.5 km/h 61 % 0 mm 812 W/m2
12:52 25 °C 16.7 °C 1013.4 hPa SSE 8 km/h 22.5 km/h 60 % 0 mm 872 W/m2
12:57 25.2 °C 16.6 °C 1013.4 hPa South 8 km/h 22.5 km/h 59 % 0 mm 844 W/m2
13:02 25.3 °C 16.4 °C 1013.4 hPa SSE 11.3 km/h 22.5 km/h 58 % 0 mm 875 W/m2
13:07 25.6 °C 17 °C 1013.4 hPa SE 11.3 km/h 22.5 km/h 59 % 0 mm 860 W/m2
13:12 25.7 °C 16.8 °C 1013.4 hPa SSE 9.7 km/h 19.3 km/h 58 % 0 mm 861 W/m2
13:17 25.9 °C 16.4 °C 1013.4 hPa SSE 9.7 km/h 17.7 km/h 56 % 0 mm 889 W/m2
13:22 26 °C 17.1 °C 1013.4 hPa SSE 8 km/h 17.7 km/h 58 % 0 mm 893 W/m2
13:27 26.1 °C 17.2 °C 1013.4 hPa SSE 4.8 km/h 16.1 km/h 58 % 0 mm 819 W/m2
13:32 26.4 °C 17.2 °C 1013.4 hPa SSE 8 km/h 17.7 km/h 57 % 0 mm 914 W/m2
13:37 26.6 °C 16.5 °C 1013.4 hPa South 9.7 km/h 17.7 km/h 54 % 0 mm 911 W/m2
13:42 26.8 °C 17.3 °C 1013.4 hPa SW 8 km/h 16.1 km/h 56 % 0 mm 947 W/m2
13:47 27.1 °C 17 °C 1013.4 hPa South 8 km/h 16.1 km/h 54 % 0 mm 821 W/m2
13:52 27.1 °C 17 °C 1013.1 hPa South 6.4 km/h 14.5 km/h 54 % 0 mm 879 W/m2
13:57 27 °C 17.2 °C 1013.1 hPa South 8 km/h 16.1 km/h 55 % 0 mm 918 W/m2
14:02 26.8 °C 16.7 °C 1013.1 hPa SSE 11.3 km/h 19.3 km/h 54 % 0 mm 271 W/m2
14:07 26.9 °C 17.1 °C 1013.1 hPa SE 11.3 km/h 19.3 km/h 55 % 0 mm 928 W/m2
14:12 27.2 °C 17.1 °C 1012.8 hPa SE 9.7 km/h 16.1 km/h 54 % 0 mm 928 W/m2
14:17 27.2 °C 16.8 °C 1012.8 hPa SSE 8 km/h 17.7 km/h 53 % 0 mm 893 W/m2
14:22 27.3 °C 16.9 °C 1012.8 hPa SSW 8 km/h 17.7 km/h 53 % 0 mm 893 W/m2
14:27 27.2 °C 16.8 °C 1012.8 hPa SW 8 km/h 17.7 km/h 53 % 0 mm 925 W/m2
14:32 27.4 °C 16.7 °C 1012.8 hPa South 11.3 km/h 24.1 km/h 52 % 0 mm 879 W/m2
14:37 27.7 °C 16.7 °C 1012.4 hPa SSE 9.7 km/h 24.1 km/h 51 % 0 mm 700 W/m2
14:42 27.7 °C 16.9 °C 1012.8 hPa South 8 km/h 16.1 km/h 52 % 0 mm 659 W/m2
14:47 27.5 °C 16.8 °C 1012.4 hPa South 9.7 km/h 16.1 km/h 52 % 0 mm 585 W/m2
14:52 27.6 °C 16.6 °C 1012.4 hPa SSE 9.7 km/h 19.3 km/h 51 % 0 mm 745 W/m2
14:57 27.6 °C 16.8 °C 1012.4 hPa South 9.7 km/h 19.3 km/h 52 % 0 mm 403 W/m2
15:02 27.5 °C 16.4 °C 1012.4 hPa SSE 11.3 km/h 19.3 km/h 51 % 0 mm 299 W/m2
15:07 27.4 °C 16.7 °C 1012.4 hPa SSE 11.3 km/h 19.3 km/h 52 % 0 mm 619 W/m2
15:12 27.3 °C 16.9 °C 1012.4 hPa SSE 9.7 km/h 17.7 km/h 53 % 0 mm 295 W/m2
15:17 27.2 °C 16.8 °C 1012.4 hPa SSE 8 km/h 12.9 km/h 53 % 0 mm 329 W/m2
15:22 27.1 °C 16.7 °C 1012.4 hPa SSE 8 km/h 17.7 km/h 53 % 0 mm 304 W/m2
15:27 26.9 °C 16.5 °C 1012.1 hPa SE 6.4 km/h 17.7 km/h 53 % 0 mm 301 W/m2
15:32 26.9 °C 16.8 °C 1012.1 hPa SE 6.4 km/h 16.1 km/h 54 % 0 mm 396 W/m2
15:37 26.9 °C 16.5 °C 1012.1 hPa SE 9.7 km/h 20.9 km/h 53 % 0 mm 367 W/m2
15:42 26.9 °C 16.2 °C 1012.1 hPa SE 11.3 km/h 20.9 km/h 52 % 0 mm 963 W/m2
15:47 27.1 °C 16.4 °C 1012.1 hPa SSE 11.3 km/h 17.7 km/h 52 % 0 mm 684 W/m2
15:52 27.2 °C 16.5 °C 1012.1 hPa SSE 9.7 km/h 17.7 km/h 52 % 0 mm 306 W/m2
15:57 27.2 °C 16.8 °C 1012.1 hPa SSE 11.3 km/h 19.3 km/h 53 % 0 mm 679 W/m2
16:02 27.3 °C 16.6 °C 1011.7 hPa South 9.7 km/h 19.3 km/h 52 % 0 mm 297 W/m2
16:07 27.2 °C 16.5 °C 1011.7 hPa South 9.7 km/h 19.3 km/h 52 % 0 mm 142 W/m2
16:12 26.9 °C 16.5 °C 1011.7 hPa SSE 12.9 km/h 22.5 km/h 53 % 0 mm 125 W/m2
16:17 26.7 °C 16.3 °C 1011.7 hPa South 11.3 km/h 22.5 km/h 53 % 0 mm 139 W/m2
16:22 26.5 °C 16.4 °C 1011.7 hPa SSW 6.4 km/h 14.5 km/h 54 % 0 mm 183 W/m2
16:27 26.4 °C 16.9 °C 1011.7 hPa SSW 6.4 km/h 14.5 km/h 56 % 0 mm 211 W/m2
16:32 26.4 °C 16.6 °C 1011.7 hPa South 4.8 km/h 11.3 km/h 55 % 0 mm 199 W/m2
16:37 26.3 °C 16.6 °C 1011.7 hPa SSE 1.6 km/h 6.4 km/h 55 % 0 mm 206 W/m2
16:42 26.3 °C 16.6 °C 1011.4 hPa SSE 1.6 km/h 6.4 km/h 55 % 0 mm 155 W/m2
16:48 26.3 °C 16.6 °C 1011.4 hPa South 3.2 km/h 8 km/h 55 % 0 mm 107 W/m2
16:53 26.3 °C 16.8 °C 1011.4 hPa SSW 4.8 km/h 8 km/h 56 % 0 mm 83 W/m2
16:58 26.3 °C 17.1 °C 1011.4 hPa SW 6.4 km/h 9.7 km/h 57 % 0 mm 86 W/m2
17:03 26.2 °C 17 °C 1011.4 hPa SW 4.8 km/h 9.7 km/h 57 % 0 mm 120 W/m2
17:08 26.2 °C 17.3 °C 1011.4 hPa SW 4.8 km/h 12.9 km/h 58 % 0 mm 137 W/m2
17:13 26.1 °C 17.2 °C 1011.4 hPa WSW 9.7 km/h 24.1 km/h 58 % 0 mm 141 W/m2
17:18 26.1 °C 17.4 °C 1011.4 hPa West 11.3 km/h 24.1 km/h 59 % 0 mm 97 W/m2
17:23 26.1 °C 17.2 °C 1011.1 hPa WNW 9.7 km/h 17.7 km/h 58 % 0 mm 84 W/m2
17:28 26.1 °C 17.4 °C 1011.1 hPa WNW 9.7 km/h 17.7 km/h 59 % 0 mm 56 W/m2
17:33 25.9 °C 17.6 °C 1011.1 hPa WNW 9.7 km/h 14.5 km/h 60 % 0 mm 53 W/m2
17:38 25.8 °C 19.7 °C 1011.4 hPa West 8 km/h 14.5 km/h 69 % 0.51 mm 62 W/m2
17:43 25.1 °C 19.2 °C 1011.4 hPa SW 6.4 km/h 14.5 km/h 70 % 1.27 mm 53 W/m2
17:48 24.1 °C 19.2 °C 1011.4 hPa WSW 9.7 km/h 20.9 km/h 74 % 2.29 mm 49 W/m2
17:53 23.2 °C 18.3 °C 1011.1 hPa WNW 6.4 km/h 20.9 km/h 74 % 2.29 mm 51 W/m2
17:58 22.9 °C 19.1 °C 1011.1 hPa NNW 1.6 km/h 12.9 km/h 79 % 2.29 mm 44 W/m2
18:03 22.6 °C 19.4 °C 1011.1 hPa Calm   8 km/h 82 % 2.29 mm 51 W/m2
18:08 22.4 °C 19.8 °C 1011.1 hPa Calm   6.4 km/h 85 % 2.29 mm 83 W/m2
18:13 22.2 °C 19.4 °C 1011.1 hPa North 3.2 km/h 8 km/h 84 % 2.29 mm 120 W/m2
18:18 22.2 °C 19.6 °C 1011.1 hPa NNW 4.8 km/h 9.7 km/h 85 % 2.29 mm 107 W/m2
18:23 22.2 °C 19.7 °C 1011.1 hPa WNW 3.2 km/h 9.7 km/h 86 % 2.29 mm 104 W/m2
18:28 22.2 °C 19.7 °C 1011.1 hPa West 3.2 km/h 9.7 km/h 86 % 2.29 mm 91 W/m2
18:33 22.2 °C 19.7 °C 1011.1 hPa WNW 4.8 km/h 12.9 km/h 86 % 2.29 mm 93 W/m2
18:38 22.2 °C 19.4 °C 1011.1 hPa WNW 8 km/h 14.5 km/h 84 % 1.78 mm 139 W/m2
18:43 22.3 °C 19.3 °C 1011.1 hPa NW 8 km/h 14.5 km/h 83 % 1.27 mm 188 W/m2
18:48 22.4 °C 19.4 °C 1011.1 hPa NW 8 km/h 16.1 km/h 83 % 0 mm 204 W/m2
18:53 22.5 °C 19.1 °C 1011.1 hPa NW 11.3 km/h 20.9 km/h 81 % 0 mm 151 W/m2
18:58 22.5 °C 18.7 °C 1011.1 hPa NW 14.5 km/h 24.1 km/h 79 % 0 mm 197 W/m2
19:03 22.5 °C 18.7 °C 1011.4 hPa NW 14.5 km/h 24.1 km/h 79 % 0 mm 204 W/m2
19:08 22.6 °C 18.8 °C 1011.4 hPa NW 11.3 km/h 19.3 km/h 79 % 0 mm 220 W/m2
19:13 22.6 °C 18.6 °C 1011.4 hPa NW 11.3 km/h 22.5 km/h 78 % 0 mm 302 W/m2
19:18 22.7 °C 18.7 °C 1011.4 hPa NW 11.3 km/h 22.5 km/h 78 % 0 mm 239 W/m2
19:23 22.8 °C 18.3 °C 1011.4 hPa WNW 9.7 km/h 24.1 km/h 76 % 0 mm 216 W/m2
19:28 22.9 °C 18.2 °C 1011.4 hPa WNW 11.3 km/h 24.1 km/h 75 % 0 mm 195 W/m2
19:33 22.8 °C 17.9 °C 1011.7 hPa NW 11.3 km/h 24.1 km/h 74 % 0 mm 148 W/m2
19:38 22.8 °C 17.7 °C 1011.7 hPa WNW 11.3 km/h 24.1 km/h 73 % 0 mm 169 W/m2
19:43 22.7 °C 17.6 °C 1011.7 hPa NW 11.3 km/h 19.3 km/h 73 % 0 mm 162 W/m2
19:48 22.7 °C 17.6 °C 1011.7 hPa NW 8 km/h 17.7 km/h 73 % 0 mm 146 W/m2
19:53 22.6 °C 17.3 °C 1011.7 hPa NW 8 km/h 20.9 km/h 72 % 0 mm 88 W/m2
19:58 22.4 °C 17.1 °C 1012.1 hPa NW 9.7 km/h 20.9 km/h 72 % 0 mm 46 W/m2
20:03 22.2 °C 16.9 °C 1012.1 hPa NW 9.7 km/h 17.7 km/h 72 % 0 mm 39 W/m2
20:08 22 °C 16.9 °C 1012.1 hPa NW 11.3 km/h 19.3 km/h 73 % 0 mm 39 W/m2
20:13 21.8 °C 16.7 °C 1012.1 hPa NW 9.7 km/h 19.3 km/h 73 % 0 mm 44 W/m2
20:18 21.7 °C 16.9 °C 1012.1 hPa NW 9.7 km/h 17.7 km/h 74 % 0 mm 30 W/m2
20:23 21.6 °C 17 °C 1012.1 hPa NW 6.4 km/h 17.7 km/h 75 % 0 mm 26 W/m2
20:28 21.4 °C 16.6 °C 1012.4 hPa NW 6.4 km/h 16.1 km/h 74 % 0 mm 21 W/m2
20:33 21.4 °C 16.8 °C 1012.4 hPa NW 8 km/h 16.1 km/h 75 % 0 mm 19 W/m2
20:38 21.3 °C 16.7 °C 1012.4 hPa NW 6.4 km/h 14.5 km/h 75 % 0 mm 23 W/m2
20:43 21.3 °C 16.5 °C 1012.4 hPa NW 8 km/h 16.1 km/h 74 % 0 mm 21 W/m2
20:48 21.2 °C 16.4 °C 1012.4 hPa NW 9.7 km/h 16.1 km/h 74 % 0 mm 18 W/m2
20:53 21.2 °C 15.9 °C 1012.4 hPa NW 8 km/h 16.1 km/h 72 % 0 mm 18 W/m2
20:59 21.1 °C 15.8 °C 1012.4 hPa NW 8 km/h 16.1 km/h 72 % 0 mm 19 W/m2
21:04 21 °C 15.6 °C 1012.4 hPa NW 8 km/h 16.1 km/h 71 % 0 mm 14 W/m2
21:09 20.9 °C 15.4 °C 1012.8 hPa NW 8 km/h 14.5 km/h 71 % 0 mm 11 W/m2
21:14 20.8 °C 15.3 °C 1012.8 hPa NW 9.7 km/h 16.1 km/h 71 % 0 mm 7 W/m2
21:19 20.7 °C 15.3 °C 1012.8 hPa NW 9.7 km/h 16.1 km/h 71 % 0 mm 5 W/m2
21:24 20.7 °C 15.3 °C 1012.8 hPa NW 9.7 km/h 14.5 km/h 71 % 0 mm 5 W/m2
21:29 20.6 °C 15.2 °C 1012.8 hPa NW 8 km/h 14.5 km/h 71 % 0 mm 0 W/m2
21:34 20.6 °C 15.2 °C 1012.8 hPa NW 8 km/h 14.5 km/h 71 % 0 mm 0 W/m2
21:39 20.5 °C 15.1 °C 1012.8 hPa NW 8 km/h 17.7 km/h 71 % 0 mm 0 W/m2
21:44 20.5 °C 15.1 °C 1012.8 hPa NW 9.7 km/h 17.7 km/h 71 % 0 mm 0 W/m2
21:49 20.4 °C 15.2 °C 1012.8 hPa NW 9.7 km/h 16.1 km/h 72 % 0 mm 0 W/m2
21:59 20.2 °C 15 °C 1013.1 hPa NW 6.4 km/h 12.9 km/h 72 % 0 mm 0 W/m2
22:04 20.2 °C 15.2 °C 1013.1 hPa NW 6.4 km/h 12.9 km/h 73 % 0 mm 0 W/m2
22:09 20.1 °C 15.1 °C 1013.1 hPa NW 6.4 km/h 12.9 km/h 73 % 0 mm 0 W/m2
22:14 19.9 °C 14.5 °C 1013.1 hPa NW 6.4 km/h 14.5 km/h 71 % 0 mm 0 W/m2
22:19 19.8 °C 14.2 °C 1013.1 hPa NW 8 km/h 14.5 km/h 70 % 0 mm 0 W/m2
22:24 19.7 °C 14.1 °C 1013.1 hPa NW 9.7 km/h 17.7 km/h 70 % 0 mm 0 W/m2
22:29 19.7 °C 14.1 °C 1013.4 hPa NW 9.7 km/h 17.7 km/h 70 % 0 mm 0 W/m2
22:34 19.6 °C 14.2 °C 1013.4 hPa NW 6.4 km/h 14.5 km/h 71 % 0 mm 0 W/m2
22:39 19.6 °C 14.2 °C 1013.4 hPa NW 6.4 km/h 12.9 km/h 71 % 0 mm 0 W/m2
22:44 19.4 °C 14 °C 1013.8 hPa NW 8 km/h 20.9 km/h 71 % 0 mm 0 W/m2
22:49 19.3 °C 13.9 °C 1013.8 hPa NW 9.7 km/h 20.9 km/h 71 % 0 mm 0 W/m2
22:54 19.3 °C 14.1 °C 1013.8 hPa NW 11.3 km/h 20.9 km/h 72 % 0 mm 0 W/m2
22:59 19.2 °C 14.1 °C 1013.8 hPa NW 9.7 km/h 19.3 km/h 72 % 0 mm 0 W/m2
23:04 19.1 °C 14.2 °C 1013.8 hPa NW 9.7 km/h 20.9 km/h 73 % 0 mm 0 W/m2
23:09 19.1 °C 14.3 °C 1013.8 hPa NW 9.7 km/h 20.9 km/h 74 % 0 mm 0 W/m2
23:14 19 °C 14.3 °C 1013.8 hPa NW 9.7 km/h 20.9 km/h 74 % 0 mm 0 W/m2
23:19 18.9 °C 14.2 °C 1014.1 hPa NW 11.3 km/h 20.9 km/h 74 % 0 mm 0 W/m2
23:24 18.8 °C 14.3 °C 1014.1 hPa NW 9.7 km/h 16.1 km/h 75 % 0 mm 0 W/m2
23:29 18.8 °C 14.3 °C 1014.1 hPa NW 6.4 km/h 14.5 km/h 75 % 0 mm 0 W/m2
23:34 18.7 °C 14.4 °C 1014.1 hPa NW 8 km/h 16.1 km/h 76 % 0 mm 0 W/m2
23:39 18.7 °C 14.4 °C 1014.1 hPa NW 8 km/h 16.1 km/h 76 % 0 mm 0 W/m2
23:44 18.6 °C 14.3 °C 1014.1 hPa NW 8 km/h 16.1 km/h 76 % 0 mm 0 W/m2
23:49 18.5 °C 14.4 °C 1014.1 hPa NW 8 km/h 16.1 km/h 77 % 0 mm 0 W/m2
23:54 18.4 °C 14.3 °C 1014.1 hPa NW 8 km/h 16.1 km/h 77 % 0 mm 0 W/m2
23:59 18.4 °C 14.5 °C 1014.1 hPa WNW 9.7 km/h 16.1 km/h 78 % 0 mm 0 W/m2
Delerius-Weather
Compliments of Weather Underground - 2.25 mb

Data updates at regular intervals.